• In Hungary
  • List of Countries
  • For 7 days
  • Water Temperature
  • Satellite Maps
  • Weather Map
  • News
  • Weather Widgets
  • user-avatar
    Login

    Hourly Weather Jaromer

    Today, 21 September, Friday

    Time Temperature Precipitation Wind Pressure Humidity
    00:00 +19°C° 0 mm 2 mps 739 mmHg 77%
    01:00 +18°C° 0 mm 2 mps 739 mmHg 79%
    02:00 +18°C° 0 mm 2 mps 739 mmHg 80%
    03:00 +18°C° 0 mm 2 mps 738 mmHg 81%
    04:00 +17°C° 0 mm 2 mps 738 mmHg 82%
    05:00 +18°C° 0 mm 2 mps 738 mmHg 80%
    06:00 +18°C° 0 mm 3 mps 738 mmHg 78%
    07:00 +18°C° 0 mm 3 mps 737 mmHg 75%
    08:00 +20°C° 0 mm 4 mps 737 mmHg 67%
    09:00 +22°C° 0 mm 4 mps 737 mmHg 59%
    10:00 +25°C° 0 mm 5 mps 737 mmHg 51%
    11:00 +26°C° 0 mm 6 mps 736 mmHg 49%
    12:00 +27°C° 0 mm 6 mps 736 mmHg 46%
    13:00 +28°C° 0 mm 6 mps 735 mmHg 44%
    14:00 +28°C° 0 mm 6 mps 735 mmHg 45%
    15:00 +28°C° 0 mm 5 mps 735 mmHg 46%
    16:00 +28°C° 0 mm 5 mps 734 mmHg 47%
    17:00 +26°C° 0.1 mm 5 mps 734 mmHg 53%
    18:00 +25°C° 0.1 mm 4 mps 734 mmHg 58%
    19:00 +22°C° 0.1 mm 4 mps 735 mmHg 64%
    20:00 +20°C° 0.4 mm 4 mps 735 mmHg 70%
    21:00 +19°C° 0.4 mm 5 mps 736 mmHg 77%
    22:00 +16°C° 0.4 mm 5 mps 737 mmHg 84%
    23:00 +15°C° 0.8 mm 4 mps 738 mmHg 83%

    Tomorrow, 22 September, Saturday

    Time Temperature Precipitation Wind Pressure Humidity
    00:00 +14°C° 0.8 mm 3 mps 739 mmHg 83%
    01:00 +13°C° 0.8 mm 3 mps 739 mmHg 82%
    02:00 +13°C° 0 mm 2 mps 740 mmHg 82%
    03:00 +13°C° 0 mm 2 mps 740 mmHg 81%
    04:00 +13°C° 0 mm 2 mps 741 mmHg 81%
    05:00 +12°C° 0 mm 2 mps 741 mmHg 79%
    06:00 +11°C° 0 mm 3 mps 741 mmHg 78%
    07:00 +11°C° 0 mm 3 mps 741 mmHg 76%
    08:00 +12°C° 0 mm 4 mps 741 mmHg 68%
    09:00 +14°C° 0 mm 5 mps 742 mmHg 60%
    10:00 +15°C° 0 mm 6 mps 742 mmHg 52%
    11:00 +15°C° 0 mm 6 mps 741 mmHg 49%
    12:00 +16°C° 0 mm 6 mps 741 mmHg 46%
    13:00 +17°C° 0 mm 6 mps 741 mmHg 43%
    14:00 +17°C° 0 mm 6 mps 741 mmHg 44%
    15:00 +16°C° 0 mm 5 mps 741 mmHg 44%
    16:00 +16°C° 0 mm 5 mps 741 mmHg 44%
    17:00 +15°C° 0 mm 4 mps 741 mmHg 48%
    18:00 +14°C° 0 mm 4 mps 741 mmHg 52%
    19:00 +13°C° 0 mm 3 mps 742 mmHg 55%
    20:00 +12°C° 0 mm 3 mps 742 mmHg 58%
    21:00 +12°C° 0 mm 2 mps 742 mmHg 61%
    22:00 +12°C° 0 mm 2 mps 742 mmHg 64%
    23:00 +10°C° 0 mm 2 mps 742 mmHg 66%

    Day after tomorrow, 23 September, Sunday

    Time Temperature Precipitation Wind Pressure Humidity
    00:00 +10°C° 0 mm 2 mps 742 mmHg 69%
    01:00 +9°C° 0 mm 2 mps 743 mmHg 72%
    02:00 +9°C° 0 mm 2 mps 742 mmHg 73%
    03:00 +9°C° 0 mm 2 mps 742 mmHg 75%
    04:00 +9°C° 0 mm 2 mps 742 mmHg 76%
    05:00 +9°C° 0 mm 2 mps 742 mmHg 75%
    06:00 +10°C° 0 mm 2 mps 742 mmHg 74%
    07:00 +10°C° 0 mm 2 mps 742 mmHg 73%
    08:00 +11°C° 0 mm 3 mps 742 mmHg 71%
    09:00 +12°C° 0 mm 3 mps 742 mmHg 68%
    10:00 +13°C° 0 mm 4 mps 742 mmHg 66%
    11:00 +13°C° 0 mm 4 mps 741 mmHg 67%
    12:00 +13°C° 0 mm 4 mps 741 mmHg 67%
    13:00 +13°C° 0 mm 4 mps 740 mmHg 68%
    14:00 +13°C° 0.1 mm 4 mps 739 mmHg 71%
    15:00 +13°C° 0.1 mm 4 mps 739 mmHg 75%
    16:00 +13°C° 0.1 mm 4 mps 738 mmHg 78%
    17:00 +13°C° 0.3 mm 4 mps 737 mmHg 82%
    18:00 +13°C° 0.3 mm 4 mps 736 mmHg 85%
    19:00 +13°C° 0.3 mm 4 mps 735 mmHg 89%
    20:00 +14°C° 0.3 mm 5 mps 734 mmHg 89%
    21:00 +15°C° 0.3 mm 6 mps 733 mmHg 89%
    22:00 +16°C° 0.3 mm 7 mps 732 mmHg 89%
    23:00 +16°C° 3.7 mm 7 mps 730 mmHg 89%

    24 September, Monday

    Time Temperature Precipitation Wind Pressure Humidity
    00:00 +17°C° 3.7 mm 7 mps 729 mmHg 89%
    01:00 +17°C° 3.7 mm 7 mps 728 mmHg 88%
    02:00 +17°C° 3 mm 8 mps 727 mmHg 86%
    03:00 +16°C° 3 mm 8 mps 727 mmHg 84%
    04:00 +16°C° 3 mm 9 mps 727 mmHg 82%
    05:00 +12°C° 0.3 mm 9 mps 729 mmHg 82%
    06:00 +9°C° 0.3 mm 10 mps 731 mmHg 81%
    07:00 +7°C° 0.3 mm 10 mps 734 mmHg 81%
    08:00 +7°C° 0.1 mm 10 mps 736 mmHg 79%
    09:00 +7°C° 0.1 mm 9 mps 738 mmHg 77%
    10:00 +8°C° 0.1 mm 9 mps 740 mmHg 74%
    11:00 +8°C° 0 mm 9 mps 741 mmHg 67%
    12:00 +10°C° 0 mm 9 mps 741 mmHg 59%
    13:00 +11°C° 0 mm 10 mps 742 mmHg 52%
    14:00 +11°C° 0 mm 9 mps 743 mmHg 50%
    15:00 +11°C° 0 mm 9 mps 743 mmHg 49%
    16:00 +11°C° 0 mm 8 mps 744 mmHg 48%
    17:00 +10°C° 0 mm 7 mps 744 mmHg 54%
    18:00 +9°C° 0 mm 6 mps 745 mmHg 60%
    19:00 +7°C° 0 mm 5 mps 746 mmHg 65%
    20:00 +7°C° 0 mm 4 mps 746 mmHg 68%
    21:00 +6°C° 0 mm 4 mps 747 mmHg 70%
    22:00 +6°C° 0 mm 4 mps 748 mmHg 72%
    23:00 +5°C° 0 mm 4 mps 748 mmHg 74%

    25 September, Tuesday

    Time Temperature Precipitation Wind Pressure Humidity
    00:00 +5°C° 0 mm 4 mps 748 mmHg 76%
    01:00 +5°C° 0 mm 4 mps 749 mmHg 78%
    02:00 +4°C° 0 mm 3 mps 749 mmHg 80%
    03:00 +4°C° 0 mm 3 mps 750 mmHg 82%
    04:00 +4°C° 0 mm 3 mps 750 mmHg 84%
    05:00 +4°C° 0 mm 3 mps 751 mmHg 83%
    06:00 +4°C° 0 mm 3 mps 751 mmHg 83%
    07:00 +4°C° 0 mm 3 mps 752 mmHg 82%
    08:00 +7°C° 0 mm 3 mps 752 mmHg 73%
    09:00 +8°C° 0 mm 4 mps 753 mmHg 64%
    10:00 +10°C° 0 mm 4 mps 753 mmHg 55%
    11:00 +11°C° 0 mm 4 mps 753 mmHg 51%
    12:00 +12°C° 0 mm 4 mps 753 mmHg 47%
    13:00 +12°C° 0 mm 4 mps 753 mmHg 43%
    14:00 +12°C° 0 mm 4 mps 753 mmHg 43%
    15:00 +12°C° 0 mm 4 mps 753 mmHg 43%
    16:00 +12°C° 0 mm 4 mps 753 mmHg 43%
    17:00 +10°C° 0 mm 3 mps 753 mmHg 50%
    18:00 +9°C° 0 mm 3 mps 753 mmHg 56%
    19:00 +7°C° 0 mm 2 mps 754 mmHg 62%
    20:00 +7°C° 0 mm 2 mps 754 mmHg 64%
    21:00 +6°C° 0 mm 2 mps 754 mmHg 67%
    22:00 +6°C° 0 mm 2 mps 754 mmHg 69%
    23:00 +6°C° 0 mm 2 mps 754 mmHg 69%

    26 September, Wednesday

    Time Temperature Precipitation Wind Pressure Humidity
    00:00 +6°C° 0 mm 2 mps 753 mmHg 68%
    01:00 +6°C° 0 mm 2 mps 753 mmHg 68%
    02:00 +5°C° 0 mm 3 mps 753 mmHg 69%
    03:00 +5°C° 0 mm 3 mps 753 mmHg 71%
    04:00 +5°C° 0 mm 3 mps 753 mmHg 72%
    05:00 +5°C° 0 mm 3 mps 753 mmHg 73%
    06:00 +5°C° 0 mm 3 mps 753 mmHg 74%
    07:00 +5°C° 0 mm 3 mps 753 mmHg 75%
    08:00 +7°C° 0 mm 4 mps 753 mmHg 71%
    09:00 +10°C° 0 mm 4 mps 753 mmHg 68%
    10:00 +12°C° 0 mm 5 mps 753 mmHg 64%
    11:00 +13°C° 0 mm 5 mps 753 mmHg 62%
    12:00 +13°C° 0 mm 5 mps 753 mmHg 59%
    13:00 +14°C° 0 mm 4 mps 753 mmHg 56%
    14:00 +14°C° 0 mm 4 mps 753 mmHg 57%
    15:00 +14°C° 0 mm 4 mps 752 mmHg 57%
    16:00 +14°C° 0 mm 3 mps 752 mmHg 58%
    17:00 +12°C° 0 mm 3 mps 752 mmHg 65%
    18:00 +10°C° 0 mm 2 mps 752 mmHg 72%
    19:00 +10°C° 0 mm 1 mps 752 mmHg 80%
    20:00 +9°C° 0 mm 1 mps 752 mmHg 82%
    21:00 +9°C° 0 mm 1 mps 753 mmHg 83%
    22:00 +8°C° 0 mm 1 mps 753 mmHg 85%
    23:00 +8°C° 0 mm 1 mps 752 mmHg 86%
    Show more